Weather reports worldwide

Advertisment
Deelen, Netherlands (6275): temperature & dewpoint: 17.10.2020 01:00:00 - 23.10.2020 01:00:00 (CEST)Deelen, Netherlands (6275): temperature 5cm: 17.10.2020 01:00:00 - 23.10.2020 01:00:00 (CEST)Deelen, Netherlands (6275): wind speed & gusts: 17.10.2020 01:00:00 - 23.10.2020 01:00:00 (CEST)Deelen, Netherlands (6275): wind direction: 17.10.2020 01:00:00 - 23.10.2020 01:00:00 (CEST)Deelen, Netherlands (6275): reduced air pressure: 17.10.2020 01:00:00 - 23.10.2020 01:00:00 (CEST)Deelen, Netherlands (6275): visibility: 17.10.2020 01:00:00 - 23.10.2020 01:00:00 (CEST)Deelen, Netherlands (6275): precipitation: 17.10.2020 01:00:00 - 23.10.2020 01:00:00 (CEST)
Date & Time tt [°C] td [°C] tt 5cm [°C] ff [km/h] ff [kn] fx [km/h] fx [kn] dd ppp [hPa] vv [km] rr [mm]
23.10.2020 01:00:00 9,6 9,5 6,8 9 5 14 8 SSW 1011,9 6 0,0
23.10.2020 00:00:00 9,8 9,7 7,3 8 4 11 6 SSW 1011,8 2,8 0,0
22.10.2020 23:00:00 9,7 9,3 6,9 2 1 11 6 - 1011,8 10 0,0
22.10.2020 22:00:00 12,1 10,2 9,6 5 3 11 6 SSW 1011,5 10 0,0
22.10.2020 21:00:00 11,4 10,4 7,8 8 4 11 6 SSW 1011,0 10 0,0
22.10.2020 20:00:00 12,0 9,6 9,6 8 4 11 6 SSW 1011,0 10 0,0
22.10.2020 19:00:00 13,4 9,8 12,1 11 6 25 14 SSW 1010,6 10 0,0
22.10.2020 18:00:00 15,4 10,8 14,7 13 7 22 12 - 1010,3 10 0,0
22.10.2020 17:00:00 16,0 10,8 15,9 13 7 32 18 - 1010,1 10 0,0
22.10.2020 16:00:00 16,2 9,5 16,0 21 11 40 21 - 1010,3 10 0,0
22.10.2020 15:00:00 17,6 9,6 17,4 16 9 36 19 - 1010,1 10 0,0
22.10.2020 14:00:00 16,7 9,8 17,0 22 12 36 19 SSW 1010,5 10 0,0
22.10.2020 13:00:00 15,7 11,0 15,6 24 13 40 21 SSW 1010,8 10 0,0
22.10.2020 12:00:00 15,9 11,1 16,6 24 13 40 21 SSW 1011,0 10 -
22.10.2020 11:00:00 14,7 11,7 15,0 24 13 - - SSW 1010,9 10 0,0
22.10.2020 10:00:00 13,6 12,4 13,5 21 11 32 18 SSW 1010,6 10 0,0
22.10.2020 09:00:00 12,6 11,9 11,6 16 9 25 14 SSW 1009,9 10 0,0
22.10.2020 08:00:00 12,9 12,0 12,0 16 9 25 14 SSW 1008,7 10 0,0
22.10.2020 07:00:00 13,6 12,2 12,7 18 10 32 18 SSW 1008,4 10 0,0
22.10.2020 06:00:00 14,2 12,7 13,5 21 11 32 18 SSW 1008,3 10 0,0
22.10.2020 05:00:00 14,2 12,8 13,3 18 10 29 16 SSW 1008,1 10 0,0
22.10.2020 04:00:00 14,5 13,0 13,3 15 8 25 14 SSW 1008,0 10 0,0
22.10.2020 03:00:00 14,7 13,2 14,0 13 7 22 12 S 1007,8 10 0,0
22.10.2020 02:00:00 14,6 12,7 13,9 13 7 25 14 SSW 1007,4 10 0,0
22.10.2020 01:00:00 14,2 12,1 13,5 18 10 43 23 WSW 1006,8 10 0,0
22.10.2020 00:00:00 15,4 12,1 15,0 24 13 61 33 WSW 1006,0 10 0,0
21.10.2020 23:00:00 16,4 12,2 16,0 41 22 72 39 SW 1004,5 10 0,0
21.10.2020 22:00:00 17,3 12,1 16,3 37 20 68 37 SW 1002,6 10 0,0
21.10.2020 21:00:00 18,8 12,2 18,0 44 24 68 37 SW 1001,4 10 0,0
21.10.2020 20:00:00 18,9 12,7 17,6 37 20 58 31 SSW 1000,3 10 0,0
21.10.2020 19:00:00 19,1 13,0 18,3 34 18 54 29 - 999,3 10 0,0
21.10.2020 18:00:00 19,3 12,9 18,5 35 19 61 33 - 998,5 10 0,0
21.10.2020 17:00:00 19,3 12,9 18,5 31 17 54 29 - 997,9 10 0,0
21.10.2020 16:00:00 19,2 12,8 18,5 35 19 61 33 S 997,7 10 0,0
21.10.2020 15:00:00 18,0 12,9 17,5 28 15 50 27 - 997,9 10 0,0
21.10.2020 14:00:00 15,8 12,7 15,0 26 14 43 23 SSE 998,7 10 0,0
21.10.2020 13:00:00 13,6 12,4 13,6 24 13 36 19 SSE 1000,5 10 0,0
21.10.2020 12:00:00 12,9 12,8 12,8 22 12 32 18 SSE 1001,4 10 1,9
21.10.2020 11:00:00 12,4 12,2 12,2 18 10 40 21 SSE 1002,3 10 0,8
21.10.2020 10:00:00 12,0 11,9 11,9 16 9 29 16 SSE 1002,7 9 1,9
21.10.2020 09:00:00 12,1 12,1 12,0 18 10 40 21 SSE 1003,2 10 0,1
21.10.2020 08:00:00 12,2 12,1 12,1 15 8 29 16 SSE 1003,3 6 0,9
21.10.2020 07:00:00 12,4 12,3 12,2 16 9 25 14 SSE 1003,6 7 0,8
21.10.2020 06:00:00 12,5 12,4 12,3 16 9 25 14 SSE 1004,0 5 0,7
21.10.2020 05:00:00 12,9 12,8 12,7 16 9 25 14 SSE 1004,6 9 0,5
21.10.2020 04:00:00 13,0 12,9 12,8 15 8 25 14 SSE 1005,2 10 0,1
21.10.2020 03:00:00 13,4 12,9 13,1 15 8 29 16 S 1005,8 10 0,0
21.10.2020 02:00:00 13,6 12,9 13,2 18 10 32 18 S 1006,1 10 0,0
21.10.2020 01:00:00 13,4 13,0 13,2 21 11 32 18 S 1006,4 10 0,0
21.10.2020 00:00:00 13,6 13,1 13,3 18 10 29 16 S 1006,8 10 0,0
20.10.2020 23:00:00 13,7 13,2 13,4 18 10 29 16 S 1007,2 10 0,1
20.10.2020 22:00:00 13,8 13,1 13,3 15 8 29 16 S 1007,4 10 0,0
20.10.2020 21:00:00 13,4 12,7 13,1 15 8 25 14 SSE 1007,6 10 0,0
20.10.2020 20:00:00 13,4 12,5 13,0 16 9 29 16 S 1007,3 10 0,0
20.10.2020 19:00:00 13,6 12,2 13,1 21 11 29 16 S 1007,7 10 0,0
20.10.2020 18:00:00 13,5 12,0 13,0 18 10 29 16 S 1007,5 10 0,0
20.10.2020 17:00:00 13,1 11,8 12,8 13 7 25 14 S 1007,4 10 0,0
20.10.2020 16:00:00 12,9 11,2 12,7 15 8 25 14 S 1007,9 10 0,0
20.10.2020 15:00:00 12,3 10,7 12,0 16 9 29 16 S 1007,6 10 0,0
20.10.2020 14:00:00 12,0 10,2 11,9 18 10 29 16 S 1007,7 10 0,1
20.10.2020 13:00:00 12,2 9,2 12,1 18 10 36 19 S 1008,4 10 0,0
20.10.2020 12:00:00 11,6 8,2 11,2 21 11 32 18 S 1008,4 10 0,0
20.10.2020 11:00:00 10,8 7,2 10,6 21 11 32 18 S 1008,3 10 0,0
20.10.2020 10:00:00 10,1 6,5 9,7 18 10 29 16 SSE 1008,3 10 0,0
20.10.2020 09:00:00 8,6 5,6 8,0 16 9 25 14 SSE 1008,4 10 0,0
20.10.2020 08:00:00 8,1 5,1 7,5 13 7 29 16 SSE 1008,3 10 0,0
20.10.2020 07:00:00 8,3 4,8 7,8 18 10 29 16 SE 1009,2 10 0,0
20.10.2020 06:00:00 8,1 4,7 7,5 18 10 29 16 SE 1009,4 10 0,0
20.10.2020 05:00:00 7,9 4,7 7,3 18 10 25 14 SE 1010,8 10 0,0
20.10.2020 04:00:00 7,8 4,7 7,1 21 11 29 16 SSE 1011,3 10 0,0
20.10.2020 03:00:00 8,0 5,0 7,4 16 9 25 14 SE 1012,4 10 0,0
20.10.2020 02:00:00 7,8 5,1 6,9 13 7 22 12 SSE 1013,7 10 0,0
20.10.2020 01:00:00 7,3 5,4 6,3 15 8 18 10 SE 1014,1 10 0,0
20.10.2020 00:00:00 7,5 5,9 6,6 11 6 14 8 SE 1015,0 10 0,0
19.10.2020 23:00:00 7,5 6,1 6,7 11 6 14 8 SE 1015,7 10 0,0
19.10.2020 22:00:00 7,8 6,2 6,9 9 5 14 8 SE 1016,8 10 0,0
19.10.2020 21:00:00 8,2 6,3 7,4 9 5 14 8 SE 1017,4 10 0,0
19.10.2020 20:00:00 8,4 6,4 7,1 9 5 14 8 ESE 1018,0 10 0,0
19.10.2020 19:00:00 9,4 5,9 8,4 11 6 14 8 SE 1018,2 10 0,0
19.10.2020 18:00:00 11,0 6,5 10,4 8 4 14 8 SSE 1018,6 10 0,0
19.10.2020 17:00:00 11,6 6,9 11,6 13 7 22 12 SSE 1019,1 10 0,0
19.10.2020 16:00:00 12,0 7,4 12,0 15 8 22 12 S 1019,8 10 0,0
19.10.2020 15:00:00 12,0 8,5 12,7 11 6 18 10 S 1020,4 10 0,0
19.10.2020 14:00:00 11,5 8,4 12,3 13 7 22 12 S 1020,8 10 0,0
19.10.2020 13:00:00 10,8 9,0 11,2 8 4 18 10 SSW 1021,4 10 0,0
19.10.2020 12:00:00 10,1 9,3 10,7 9 5 18 10 S 1021,9 9 0,0
19.10.2020 11:00:00 9,5 9,2 10,0 15 8 22 12 SSW 1022,1 8 0,0
19.10.2020 10:00:00 8,9 8,8 8,9 5 3 7 4 SSE 1022,1 3,2 0,0
19.10.2020 09:00:00 8,5 8,4 8,4 4 2 7 4 - 1021,7 1,7 0,0
19.10.2020 08:00:00 8,2 8,1 8,1 8 4 14 8 SW 1021,6 2,1 0,0
19.10.2020 07:00:00 7,2 7,2 6,7 8 4 11 6 S 1021,4 0,4 0,0
19.10.2020 06:00:00 7,8 7,8 7,2 2 1 7 4 SE 1021,6 9 0,1
19.10.2020 05:00:00 8,4 8,3 8,1 8 4 18 10 SSW 1021,8 10 0,4
19.10.2020 04:00:00 7,8 7,8 7,2 4 2 14 8 SW 1022,2 3,4 0,0
19.10.2020 03:00:00 7,7 7,6 6,9 4 2 4 2 - 1022,1 8 0,0
19.10.2020 02:00:00 7,9 7,8 7,4 4 2 7 4 - 1022,1 6 0,0
19.10.2020 01:00:00 7,6 7,5 6,7 5 3 11 6 WSW 1022,0 10 0,0
19.10.2020 00:00:00 7,0 6,9 5,7 2 1 4 2 S 1022,2 2,7 0,0
18.10.2020 23:00:00 8,4 8,3 7,7 2 1 7 4 W 1022,3 10 0,0
18.10.2020 22:00:00 8,5 8,5 7,7 5 3 7 4 SW 1022,1 10 0,0
18.10.2020 21:00:00 9,2 9,2 8,6 4 2 7 4 W 1022,1 10 0,0
18.10.2020 20:00:00 9,2 9,1 8,6 4 2 7 4 SSW 1021,9 10 0,0
18.10.2020 19:00:00 10,3 9,5 9,7 4 2 14 8 - 1021,6 10 0,0
18.10.2020 18:00:00 11,2 8,9 10,7 9 5 14 8 WSW 1021,1 10 0,0
18.10.2020 17:00:00 11,4 9,5 11,6 8 4 11 6 SW 1021,0 10 0,0
18.10.2020 16:00:00 11,0 9,5 11,0 4 2 14 8 - 1021,4 10 0,0
18.10.2020 15:00:00 10,9 9,4 11,0 9 5 18 10 NNW 1021,6 10 0,0
18.10.2020 14:00:00 11,2 10,3 11,4 5 3 14 8 NW 1021,8 7 0,0
18.10.2020 13:00:00 11,3 9,7 12,1 5 3 14 8 SW 1022,2 8 0,0
18.10.2020 12:00:00 9,7 9,7 10,1 8 4 14 8 WSW 1022,2 2,5 0,0
18.10.2020 11:00:00 8,6 8,5 8,9 8 4 11 6 SW 1021,9 1,4 0,0
18.10.2020 10:00:00 7,4 7,4 7,5 2 1 7 4 - 1021,8 1,1 0,0
18.10.2020 09:00:00 6,9 6,8 6,6 5 3 7 4 SW 1021,4 1,0 0,0
18.10.2020 08:00:00 6,3 6,2 5,6 2 1 7 4 - 1021,0 0,5 0,0
18.10.2020 07:00:00 5,9 5,8 5,5 2 1 7 4 SW 1021,0 0,3 0,0
18.10.2020 06:00:00 5,2 5,1 4,8 4 2 7 4 - 1021,0 0,2 0,0
18.10.2020 05:00:00 3,3 3,2 0,6 4 2 4 2 - 1021,2 2,6 0,0
18.10.2020 04:00:00 1,1 1,0 -0,3 4 2 7 4 - 1021,3 10 0,0
18.10.2020 03:00:00 1,9 1,8 -0,3 2 1 7 4 E 1021,7 7 0,0
18.10.2020 02:00:00 0,7 0,6 -0,8 4 2 4 2 - 1021,6 10 0,0
18.10.2020 01:00:00 1,2 1,0 -0,2 2 1 4 2 ESE 1021,7 10 0,0
18.10.2020 00:00:00 1,6 1,5 -0,1 5 3 7 4 ESE 1021,7 9 0,0
17.10.2020 23:00:00 2,3 2,2 0,4 4 2 4 2 ESE 1021,8 8 0,0
17.10.2020 22:00:00 3,4 3,3 1,5 2 1 7 4 SE 1021,7 9 0,0
17.10.2020 21:00:00 4,3 4,1 2,0 2 1 7 4 E 1021,6 2,4 0,0
17.10.2020 20:00:00 5,5 5,2 4,1 2 1 7 4 E 1021,4 9 0,0
17.10.2020 19:00:00 8,5 7,7 7,8 4 2 7 4 - 1020,9 10 0,0
17.10.2020 18:00:00 9,9 7,8 9,7 4 2 11 6 W 1020,7 10 0,0
17.10.2020 17:00:00 10,4 7,2 10,7 4 2 11 6 - 1020,8 10 0,0
17.10.2020 16:00:00 10,2 7,1 10,4 4 2 7 4 - 1021,0 10 0,0
17.10.2020 15:00:00 10,1 7,0 10,2 8 4 11 6 N 1021,0 10 0,0
17.10.2020 14:00:00 11,0 6,7 11,6 2 1 7 4 - 1020,9 10 0,0
17.10.2020 13:00:00 10,7 6,3 11,7 4 2 11 6 - 1021,2 10 0,0
17.10.2020 12:00:00 10,0 6,2 10,5 2 1 4 2 - 1021,3 10 0,0
17.10.2020 11:00:00 9,8 6,7 10,0 2 1 4 2 - 1021,2 10 0,0
17.10.2020 10:00:00 7,6 6,9 7,7 2 1 4 2 - 1021,2 10 0,0
17.10.2020 09:00:00 6,4 6,0 6,1 2 1 4 2 SE 1021,2 10 0,0
17.10.2020 08:00:00 5,8 5,8 5,5 2 1 4 2 NW 1021,0 10 0,0
17.10.2020 07:00:00 5,9 5,7 5,4 2 1 4 2 NW 1020,9 10 0,0
17.10.2020 06:00:00 6,2 5,8 6,0 0 0 4 2 N 1021,1 10 0,0
17.10.2020 05:00:00 6,2 5,9 6,1 2 1 4 2 NNW 1021,1 10 0,0
17.10.2020 04:00:00 6,2 6,1 6,0 0 0 4 2 N 1021,4 10 0,0
17.10.2020 03:00:00 6,2 5,7 6,0 2 1 4 2 NNW 1022,0 10 0,0
17.10.2020 02:00:00 6,1 5,8 5,9 0 0 0 0 N 1022,2 10 0,0
17.10.2020 01:00:00 6,0 6,0 5,6 2 1 4 2 NNW 1022,5 10 0,0

tt = temperature
td = dewpoint
tt 5cm = temperature 5cm
ff = wind speed
fx = gusts
dd = wind direction
ppp = reduced air pressure
vv = visibility
rr = precipitation

Next stations